Regional Weather Roundup
Issued by NWS

Home | Current Version | Previous Version | Text Only | Print | Product List | Glossary Off
Versions: 1 2 3 4 5 6 7 8 9 10 11 12 13 14 15 16 17 18 19 20 21 22 23 24 25 26 27 28 29 30 31 32 33 34 35 36 37 38 39 40 41 42 43 44 45 46 47 48 49 50

004
ASUS44 KJAN 240503
RWRMS

MISSISSIPPI HOURLY WEATHER ROUNDUP
NATIONAL WEATHER SERVICE JACKSON MS
1200 AM CDT THU APR 24 2014

NOTE: "FAIR: INDICATES FEW OR NO CLOUDS BELOW 12,000 FEET WITH NO
SIGNIFICANT WEATHER AND/OR OBSTRUCTIONS TO VISIBILITY.

MSZ001>002-007>008-010>013-018>021-025>028-034>036-240600-
NORTHWEST MISSISSIPPI

CITY           SKY/WX    TMP DP  RH WIND       PRES   REMARKS
CLARKSDALE       N/A     57  48  72 CALM      29.94R
CLEVELAND      FAIR      60  52  74 CALM      29.92S
GREENWOOD      CLEAR     55  47  74 VRB3      29.92F
GREENVILLE     CLEAR     58  53  84 CALM      29.92R
GRENADA        FAIR      50  48  93 CALM      29.93S
OLIVE BRANCH   CLEAR     57  41  54 E5        29.95R
OXFORD         FAIR      54  41  62 CALM      29.95S
TUNICA         CLEAR     57  45  62 CALM      29.94R
$$

MSZ003>006-009-014>017-022>024-029>033-037>039-240600-
NORTHEAST MISSISSIPPI

CITY           SKY/WX    TMP DP  RH WIND       PRES   REMARKS
BELMONT        FAIR      48  45  88 CALM      29.96S
COLUMBUS AFB   CLEAR     51  49  93 CALM      29.94F
CORINTH        FAIR      50  45  81 CALM      29.95F
GOLDN TRIANGLE CLEAR     57  45  62 CALM      29.96F
STARKVILLE     FAIR      52  48  87 CALM      29.94S
TUPELO         CLEAR     53  45  74 CALM      29.94F
$$

MSZ040-058-240600-
CENTRAL MISSISSIPPI

CITY           SKY/WX    TMP DP  RH WIND       PRES   REMARKS
JACKSON INTL   CLEAR     57  54  89 CALM      29.91F
JACKSON HAWKNS CLEAR     61  52  72 CALM      29.92F
MERIDIAN KEY   CLEAR     56  52  86 CALM      29.93S
MERIDIAN NAS   CLEAR     56  49  77 CALM      29.93F
RAYMOND        FAIR      54  48  82 CALM      29.92F
VICKSBURG      CLEAR     59  54  83 CALM      29.91S
$$

MSZ059>079-240600-
SOUTH MISSISSIPPI

CITY           SKY/WX    TMP DP  RH WIND       PRES   REMARKS
BROOKHAVEN     FAIR      55  54  94 CALM      29.93F
HATTIESBURG    CLEAR     64  60  87 CALM      29.92F
MCCOMB         CLEAR     59  53  80 VRB3      29.92S
NATCHEZ        CLEAR     57  50  77 CALM      29.92S
PINE BELT      PTCLDY    61  57  88 CALM      29.93F
$$

MSZ080>082-240600-
COASTAL MISSISSIPPI

CITY           SKY/WX    TMP DP  RH WIND       PRES   REMARKS
BILOXI         MOCLDY    70  69  96 SW6       29.93S
PASCAGOULA     CLEAR     63  63 100 CALM      29.93S FOG
GULFPORT       PTCLDY    72  66  81 S3        29.92S
$$



USA.gov is the U.S. government's official web portal to all federal, state and local government web resources and services.